EWG4NK EDDN-ELLX

Flight info

Callsign EWG4NK
Flight time 0h 42m
Altitude 24000
Route BOLSI1G BOLSI Y167 AKANU L603 RATIM DCT NOKDI Z104 AGBUL T894 BITBU Z110 BETEX BETEX4K
Aircraft A320/M-SDE3FGHIRWY/LB1

Departure

Time 2026-04-27 11:10
Airport Nuremberg Airport (EDDN)

Arrival

Time 2026-04-27 11:52
Airport Luxembourg-Findel International Airport (ELLX)
Time Latitude Longitude Altitude Speed Heading
2026-04-27 10:44 49.49523 11.07725 1029 ft 0 kts 188°
2026-04-27 11:02 49.49531 11.07727 1026 ft 4 kts 189°
2026-04-27 11:02 49.49557 11.07733 1029 ft 4 kts 181°
2026-04-27 11:02 49.49580 11.07728 1028 ft 3 kts 156°
2026-04-27 11:02 49.49592 11.07707 1029 ft 4 kts 97°
2026-04-27 11:03 49.49595 11.07675 1029 ft 1 kts 98°
2026-04-27 11:03 49.49595 11.07674 1029 ft 0 kts 98°
2026-04-27 11:06 49.49586 11.07764 1028 ft 18 kts 99°
2026-04-27 11:06 49.49564 11.07995 1029 ft 23 kts 98°
2026-04-27 11:06 49.49537 11.08248 1029 ft 25 kts 98°
2026-04-27 11:06 49.49587 11.08365 1030 ft 11 kts 14°
2026-04-27 11:07 49.49613 11.08454 1027 ft 9 kts 94°
2026-04-27 11:07 49.49604 11.08541 1029 ft 8 kts 98°
2026-04-27 11:07 49.49591 11.08678 1030 ft 17 kts 98°
2026-04-27 11:07 49.49571 11.08883 1035 ft 19 kts 99°
2026-04-27 11:08 49.49551 11.09081 1041 ft 18 kts 95°
2026-04-27 11:08 49.49536 11.09247 1046 ft 14 kts 98°
2026-04-27 11:08 49.49548 11.09376 1050 ft 12 kts 65°
2026-04-27 11:08 49.49600 11.09493 1053 ft 15 kts 53°
2026-04-27 11:09 49.49685 11.09557 1057 ft 16 kts 329°
2026-04-27 11:09 49.49718 11.09331 1051 ft 38 kts 278°
2026-04-27 11:09 49.49799 11.08519 1032 ft 112 kts 279°
2026-04-27 11:09 49.49933 11.07039 1074 ft 160 kts 274°
2026-04-27 11:10 49.50085 11.05337 1730 ft 161 kts 278°
2026-04-27 11:10 49.50253 11.03631 2417 ft 164 kts 281°
2026-04-27 11:10 49.50440 11.01784 2809 ft 186 kts 279°
2026-04-27 11:10 49.50651 10.99689 3183 ft 209 kts 279°
2026-04-27 11:11 49.50884 10.97341 3612 ft 234 kts 279°
2026-04-27 11:11 49.51142 10.94729 4117 ft 258 kts 278°
2026-04-27 11:11 49.51019 10.91929 4935 ft 269 kts 251°
2026-04-27 11:11 49.50268 10.89278 5861 ft 272 kts 245°
2026-04-27 11:12 49.49449 10.86625 6794 ft 276 kts 246°
2026-04-27 11:12 49.48627 10.83976 7668 ft 280 kts 246°
2026-04-27 11:12 49.47777 10.81261 8569 ft 284 kts 244°
2026-04-27 11:12 49.46589 10.78802 9419 ft 291 kts 224°
2026-04-27 11:13 49.44894 10.77030 10286 ft 298 kts 205°
2026-04-27 11:13 49.42876 10.76174 10894 ft 312 kts 186°
2026-04-27 11:13 49.40621 10.76078 11166 ft 336 kts 181°
2026-04-27 11:13 49.38205 10.76008 11401 ft 357 kts 186°
2026-04-27 11:14 49.35751 10.75188 11976 ft 364 kts 201°
2026-04-27 11:14 49.33515 10.73353 12701 ft 366 kts 218°
2026-04-27 11:14 49.31701 10.70613 13465 ft 367 kts 235°
2026-04-27 11:14 49.30465 10.67206 14202 ft 367 kts 251°
2026-04-27 11:15 49.29883 10.63407 14848 ft 368 kts 266°
2026-04-27 11:15 49.29994 10.59510 15510 ft 368 kts 281°
2026-04-27 11:15 49.30805 10.55787 16186 ft 370 kts 297°
2026-04-27 11:15 49.32087 10.52342 16856 ft 373 kts 300°
2026-04-27 11:16 49.33397 10.48894 17521 ft 376 kts 300°
2026-04-27 11:16 49.34692 10.45464 18178 ft 378 kts 299°
2026-04-27 11:16 49.36011 10.41953 18783 ft 381 kts 299°
2026-04-27 11:16 49.37334 10.38417 19361 ft 384 kts 299°
2026-04-27 11:17 49.38664 10.34854 19923 ft 386 kts 299°
2026-04-27 11:17 49.40000 10.31269 20495 ft 388 kts 299°
2026-04-27 11:17 49.41346 10.27656 21054 ft 390 kts 299°
2026-04-27 11:17 49.42698 10.24030 21586 ft 392 kts 299°
2026-04-27 11:18 49.44057 10.20382 22101 ft 395 kts 299°
2026-04-27 11:18 49.45422 10.16714 22613 ft 397 kts 299°
2026-04-27 11:18 49.46794 10.13020 23117 ft 399 kts 299°
2026-04-27 11:18 49.48172 10.09307 23609 ft 401 kts 299°
2026-04-27 11:19 49.49561 10.05565 24023 ft 403 kts 299°
2026-04-27 11:19 49.50954 10.01811 24199 ft 404 kts 299°
2026-04-27 11:19 49.52358 9.98014 24242 ft 414 kts 299°
2026-04-27 11:19 49.53791 9.94128 24246 ft 419 kts 299°
2026-04-27 11:20 49.55229 9.90213 24249 ft 420 kts 298°
2026-04-27 11:20 49.56667 9.86294 24238 ft 420 kts 298°
2026-04-27 11:20 49.58108 9.82368 24239 ft 421 kts 298°
2026-04-27 11:20 49.59550 9.78443 24236 ft 421 kts 298°
2026-04-27 11:21 49.60987 9.74521 24234 ft 421 kts 298°
2026-04-27 11:21 49.62429 9.70591 24238 ft 421 kts 298°
2026-04-27 11:21 49.63865 9.66662 24233 ft 421 kts 298°
2026-04-27 11:21 49.65299 9.62730 24231 ft 421 kts 298°
2026-04-27 11:22 49.66733 9.58791 24231 ft 420 kts 298°
2026-04-27 11:22 49.68146 9.54897 24223 ft 420 kts 298°
2026-04-27 11:22 49.69382 9.50817 24227 ft 420 kts 290°
2026-04-27 11:22 49.70206 9.46497 24215 ft 420 kts 284°
2026-04-27 11:23 49.70944 9.42129 24219 ft 420 kts 284°
2026-04-27 11:23 49.71684 9.37766 24225 ft 420 kts 285°
2026-04-27 11:23 49.72430 9.33400 24223 ft 420 kts 285°
2026-04-27 11:23 49.73175 9.29040 24226 ft 420 kts 285°
2026-04-27 11:24 49.73921 9.24655 24221 ft 420 kts 285°
2026-04-27 11:24 49.74663 9.20279 24229 ft 420 kts 284°
2026-04-27 11:24 49.75403 9.15904 24227 ft 421 kts 284°
2026-04-27 11:24 49.76142 9.11520 24228 ft 421 kts 284°
2026-04-27 11:25 49.76879 9.07144 24234 ft 421 kts 284°
2026-04-27 11:25 49.77612 9.02764 24236 ft 421 kts 284°
2026-04-27 11:25 49.78342 8.98376 24235 ft 421 kts 284°
2026-04-27 11:25 49.79069 8.93991 24242 ft 421 kts 284°
2026-04-27 11:26 49.79796 8.89609 24245 ft 420 kts 284°
2026-04-27 11:26 49.80526 8.85225 24244 ft 420 kts 284°
2026-04-27 11:26 49.81255 8.80839 24243 ft 420 kts 284°
2026-04-27 11:26 49.81982 8.76458 24242 ft 420 kts 284°
2026-04-27 11:27 49.82698 8.72123 24240 ft 420 kts 284°
2026-04-27 11:27 49.83416 8.67740 24238 ft 420 kts 284°
2026-04-27 11:27 49.84131 8.63353 24233 ft 420 kts 284°
2026-04-27 11:27 49.84844 8.58972 24239 ft 420 kts 284°
2026-04-27 11:28 49.85558 8.54587 24245 ft 420 kts 284°
2026-04-27 11:28 49.86271 8.50201 24245 ft 420 kts 284°
2026-04-27 11:28 49.86981 8.45809 24235 ft 420 kts 284°
2026-04-27 11:28 49.87671 8.41417 24237 ft 420 kts 283°
2026-04-27 11:29 49.88346 8.37022 24237 ft 419 kts 283°
2026-04-27 11:29 49.89012 8.32612 24240 ft 419 kts 283°
2026-04-27 11:29 49.89672 8.28211 24234 ft 419 kts 283°
2026-04-27 11:29 49.90333 8.23804 24247 ft 419 kts 283°
2026-04-27 11:30 49.90993 8.19406 24240 ft 419 kts 283°
2026-04-27 11:30 49.91655 8.15006 24234 ft 418 kts 283°
2026-04-27 11:30 49.92318 8.10612 24207 ft 418 kts 283°
2026-04-27 11:30 49.92979 8.06225 24209 ft 418 kts 283°
2026-04-27 11:31 49.93640 8.01821 24210 ft 418 kts 283°
2026-04-27 11:31 49.94299 7.97425 24209 ft 418 kts 283°
2026-04-27 11:31 49.94993 7.93039 24215 ft 418 kts 284°
2026-04-27 11:31 49.95772 7.88693 24218 ft 418 kts 286°
2026-04-27 11:32 49.96609 7.84367 24218 ft 418 kts 287°
2026-04-27 11:32 49.97469 7.80039 24224 ft 418 kts 287°
2026-04-27 11:32 49.98323 7.75721 24222 ft 418 kts 287°
2026-04-27 11:32 49.99169 7.71396 24227 ft 418 kts 287°
2026-04-27 11:33 50.00039 7.67080 24222 ft 419 kts 287°
2026-04-27 11:33 50.00929 7.62778 24218 ft 419 kts 287°
2026-04-27 11:33 50.01817 7.58526 24223 ft 419 kts 287°
2026-04-27 11:33 50.02730 7.54159 24219 ft 419 kts 287°
2026-04-27 11:34 50.03614 7.49904 24234 ft 419 kts 287°
2026-04-27 11:34 50.04503 7.45585 24235 ft 419 kts 287°
2026-04-27 11:34 50.05395 7.41214 24233 ft 418 kts 287°
2026-04-27 11:34 50.06253 7.36954 24238 ft 418 kts 287°
2026-04-27 11:35 50.07117 7.32627 24237 ft 418 kts 287°
2026-04-27 11:35 50.07787 7.28220 24226 ft 418 kts 278°
2026-04-27 11:35 50.08042 7.23708 24219 ft 418 kts 274°
2026-04-27 11:35 50.08228 7.19190 24230 ft 418 kts 274°
2026-04-27 11:36 50.08420 7.14675 24235 ft 418 kts 274°
2026-04-27 11:36 50.08612 7.10161 24235 ft 418 kts 274°
2026-04-27 11:36 50.08805 7.05646 24232 ft 418 kts 274°
2026-04-27 11:36 50.08996 7.01117 24238 ft 418 kts 274°
2026-04-27 11:37 50.09183 6.96583 24055 ft 420 kts 274°
2026-04-27 11:37 50.09366 6.92044 23814 ft 420 kts 274°
2026-04-27 11:37 50.09515 6.87529 23220 ft 415 kts 270°
2026-04-27 11:37 50.09420 6.83062 22420 ft 411 kts 266°
2026-04-27 11:38 50.08934 6.78692 21714 ft 408 kts 256°
2026-04-27 11:38 50.07940 6.74571 20998 ft 407 kts 246°
2026-04-27 11:38 50.07025 6.72032 20543 ft 406 kts 239°
2026-04-27 11:38 50.04662 6.67444 19647 ft 405 kts 231°
2026-04-27 11:39 50.02823 6.64194 19009 ft 403 kts 231°
2026-04-27 11:39 50.00982 6.60935 18364 ft 401 kts 232°
2026-04-27 11:39 49.99095 6.57775 17738 ft 398 kts 225°
2026-04-27 11:39 49.97657 6.55920 17321 ft 397 kts 219°
2026-04-27 11:40 49.95299 6.53694 16748 ft 396 kts 210°
2026-04-27 11:40 49.92865 6.51713 16166 ft 393 kts 210°
2026-04-27 11:40 49.90482 6.49776 15601 ft 391 kts 210°
2026-04-27 11:40 49.88078 6.47814 15008 ft 388 kts 211°
2026-04-27 11:41 49.85916 6.45388 14411 ft 382 kts 226°
2026-04-27 11:41 49.84292 6.42178 13776 ft 378 kts 242°
2026-04-27 11:41 49.83331 6.38442 13243 ft 370 kts 258°
2026-04-27 11:41 49.83069 6.34576 13113 ft 353 kts 271°
2026-04-27 11:42 49.83404 6.30890 12980 ft 339 kts 283°
2026-04-27 11:42 49.83937 6.27412 12847 ft 326 kts 283°
2026-04-27 11:42 49.84447 6.24058 12717 ft 314 kts 283°
2026-04-27 11:42 49.84938 6.20824 12585 ft 303 kts 283°
2026-04-27 11:43 49.85327 6.17677 12395 ft 294 kts 273°
2026-04-27 11:43 49.85074 6.14580 12290 ft 290 kts 252°
2026-04-27 11:43 49.84147 6.11796 11944 ft 296 kts 232°
2026-04-27 11:43 49.82593 6.09729 11592 ft 297 kts 212°
2026-04-27 11:44 49.80806 6.08130 11248 ft 296 kts 212°
2026-04-27 11:44 49.79044 6.06538 10653 ft 292 kts 211°
2026-04-27 11:44 49.77297 6.04949 9990 ft 290 kts 212°
2026-04-27 11:44 49.75568 6.03374 9388 ft 285 kts 212°
2026-04-27 11:45 49.73869 6.01826 8887 ft 280 kts 212°
2026-04-27 11:45 49.72194 6.00298 8432 ft 279 kts 211°
2026-04-27 11:45 49.70528 5.98782 7976 ft 276 kts 212°
2026-04-27 11:45 49.68872 5.97282 7520 ft 275 kts 211°
2026-04-27 11:46 49.67244 5.95810 7173 ft 264 kts 211°
2026-04-27 11:46 49.65725 5.94439 7041 ft 242 kts 212°
2026-04-27 11:46 49.64317 5.93166 6770 ft 229 kts 212°
2026-04-27 11:46 49.62958 5.91936 6320 ft 224 kts 212°
2026-04-27 11:47 49.61526 5.91116 6329 ft 222 kts 190°
2026-04-27 11:47 49.59920 5.91074 6080 ft 238 kts 170°
2026-04-27 11:47 49.58378 5.92013 5702 ft 240 kts 148°
2026-04-27 11:47 49.56977 5.93403 5087 ft 244 kts 146°
2026-04-27 11:48 49.55565 5.94845 4623 ft 239 kts 140°
2026-04-27 11:48 49.54643 5.96816 4457 ft 221 kts 106°
2026-04-27 11:48 49.54549 5.99064 4185 ft 209 kts 74°
2026-04-27 11:48 49.55152 6.01039 3906 ft 200 kts 59°
2026-04-27 11:49 49.55835 6.02838 3562 ft 190 kts 59°
2026-04-27 11:49 49.56472 6.04545 3272 ft 176 kts 60°
2026-04-27 11:49 49.57048 6.06098 3093 ft 157 kts 60°
2026-04-27 11:49 49.57558 6.07481 2947 ft 145 kts 60°
2026-04-27 11:50 49.58047 6.08808 2705 ft 139 kts 60°
2026-04-27 11:50 49.58517 6.10075 2502 ft 137 kts 60°
2026-04-27 11:50 49.58985 6.11338 2301 ft 135 kts 59°
2026-04-27 11:50 49.59455 6.12593 2118 ft 136 kts 59°
2026-04-27 11:51 49.59924 6.13848 1906 ft 136 kts 59°
2026-04-27 11:51 49.60395 6.15106 1693 ft 134 kts 59°
2026-04-27 11:51 49.61325 6.17599 1331 ft 131 kts 59°
2026-04-27 11:52 49.61783 6.18835 1199 ft 132 kts 59°
2026-04-27 11:52 49.62216 6.19991 1215 ft 108 kts 59°
2026-04-27 11:52 49.62446 6.20604 1233 ft 22 kts 44°
2026-04-27 11:52 49.62578 6.20644 1250 ft 19 kts 22°
2026-04-27 11:53 49.62710 6.20723 1244 ft 23 kts 21°
2026-04-27 11:53 49.62843 6.20890 1242 ft 27 kts 64°
2026-04-27 11:53 49.62928 6.21164 1233 ft 29 kts 65°
2026-04-27 11:53 49.63016 6.21450 1228 ft 31 kts 64°
2026-04-27 11:54 49.63110 6.21750 1226 ft 30 kts 64°
2026-04-27 11:54 49.63130 6.21789 1226 ft 0 kts 346°
2026-04-27 11:54 49.63141 6.21775 1227 ft 5 kts 327°
2026-04-27 11:54 49.63189 6.21733 1228 ft 8 kts 330°
2026-04-27 11:55 49.63244 6.21671 1230 ft 19 kts 314°
2026-04-27 11:55 49.63320 6.21567 1230 ft 1 kts 330°
2026-04-27 11:55 49.63326 6.21562 1230 ft 3 kts 330°
2026-04-27 11:55 49.63332 6.21557 1230 ft 0 kts 330°